Regional Weather Roundup
Issued by NWS

Home | Current Version | Previous Version | Text Only | Print | Product List | Glossary On
Versions: 1 2 3 4 5 6 7 8 9 10 11 12 13 14 15 16 17 18 19 20 21 22 23 24 25 26 27 28
000
ASUS42 KKEY 310410
RWRKEY

FLORIDA REGIONAL WEATHER ROUNDUP FOR THE FLORIDA KEYS
NATIONAL WEATHER SERVICE KEY WEST FLORIDA
1200 AM EDT WED AUG 31 2016

...SOUTH FLORIDA AND THE KEYS...

CITY           SKY/WX    TMP DP  RH WIND       PRES   REMARKS
FORT MYERS     CLOUDY    77  75  93 S12       29.93R
SW REGIONAL AP CLOUDY    77  74  90 SE10      29.94R
NAPLES         CLOUDY    77  76  96 SE7       29.93S
MIAMI          CLOUDY    78  76  93 SE10      29.98S
WEST KENDALL   CLOUDY    76  75  97 SE10      29.97F
HOMESTEAD      CLOUDY    78  76  91 SE12      29.97S
MARATHON       CLOUDY    83  76  79 SE10G20   29.95R HX  91
BOCA CHICA NAS CLOUDY     2  32 100 MISG      29.94R
KEY WEST INTL  CLOUDY    83  77  82 S18       29.94S HX  92

...INTERNATIONAL WEATHER...

CITY           SKY/WX    TMP DP  RH WIND       PRES   REMARKS
NASSAU BAHAMAS NOT AVBL
CANCUN MEXICO  CLOUDY    77  77 100 S9        29.85S
COZUMEL MEXICO MOCLDY    77  75  94 CALM      29.86R

ADJACENT COASTAL WATERS...

STATION/POSITION TIME  SKY/WX   TEMP    WIND        PRES    WAVE
                                AIR SEA DIR/SP/G            HT/PER
                 (UTC)          (F)     (DEG/KT/KT) (MB)    (FT/S)
PULASKI SHOAL LI 0400            82     170/ 18/ 20 1013.1R
SAND KEY         0350            82     170/ 20/ 23 1014.1R
LONG KEY         0300            83 83  140/ 11/ 12 1014.3F
FOWEY ROCKS      0400            80 84  130/ 23/ 25 1015.2F

$$




USA.gov is the U.S. government's official web portal to all federal, state and local government web resources and services.